GW3140 Weather Reports


Display with metric or nautical units.
time (UTC)temp
F
wind
direction
speed
MPH
gust
MPH
rain 1hr
in
rain 24hr
in
rain mn
in
humidity
%
barometer
mb
20260502225512 45 274 1.0 7.0 0.00 0.00 0.00 42 1015.9
20260502225012 45 0 1.0 8.0 0.00 0.00 0.00 42 1015.9
20260502224532 45 267 2.0 8.0 0.00 0.00 0.00 39 1015.9
20260502224012 45 263 1.0 8.0 0.00 0.00 0.00 40 1015.9
20260502223511 45 284 3.0 8.0 0.00 0.00 0.00 37 1016.0
20260502223029 45 276 2.0 7.0 0.00 0.00 0.00 38 1016.0
20260502222512 46 272 2.0 6.0 0.00 0.00 0.00 40 1016.1
20260502222011 46 280 2.0 9.0 0.00 0.00 0.00 41 1016.2
20260502221530 46 274 2.0 9.0 0.00 0.00 0.00 38 1016.1
20260502221012 46 268 4.0 9.0 0.00 0.00 0.00 38 1016.1
20260502220511 46 0 2.0 10.0 0.00 0.00 0.00 37 1016.0
20260502220031 46 339 2.0 11.0 0.00 0.00 0.00 38 1016.0
20260502215511 46 320 3.0 11.0 0.00 0.00 0.00 39 1016.1
20260502215012 46 229 3.0 8.0 0.00 0.00 0.00 39 1016.1
20260502214530 46 279 2.0 7.0 0.00 0.00 0.00 40 1016.1
20260502214011 47 320 2.0 6.0 0.00 0.00 0.00 38 1016.1
20260502213511 47 279 2.0 7.0 0.00 0.00 0.00 41 1016.1
20260502213039 47 325 2.0 7.0 0.00 0.00 0.00 41 1016.0
20260502212511 46 316 2.0 8.0 0.00 0.00 0.00 41 1016.0
20260502212013 47 291 3.0 8.0 0.00 0.00 0.00 36 1016.0
20260502211532 47 333 2.0 8.0 0.00 0.00 0.00 37 1016.0
20260502211013 47 340 2.0 8.0 0.00 0.00 0.00 38 1016.0
20260502210510 46 289 1.0 7.0 0.00 0.00 0.00 35 1016.1
20260502210027 47 314 3.0 6.0 0.00 0.00 0.00 35 1016.2
20260502205511 47 2 3.0 9.0 0.00 0.00 0.00 37 1016.2
20260502205011 46 295 3.0 10.0 0.00 0.00 0.00 34 1016.3
20260502204532 46 338 4.0 10.0 0.00 0.00 0.00 33 1016.2
20260502204011 46 339 2.0 12.0 0.00 0.00 0.00 38 1016.2
20260502203512 46 293 3.0 12.0 0.00 0.00 0.00 39 1016.3
20260502203032 46 285 4.0 12.0 0.00 0.00 0.00 37 1016.4
20260502202513 46 330 3.0 8.0 0.00 0.00 0.00 32 1016.3
20260502202011 47 316 2.0 7.0 0.00 0.00 0.00 37 1016.4
20260502201533 46 336 1.0 8.0 0.00 0.00 0.00 43 1016.3
20260502201012 45 331 3.0 10.0 0.00 0.00 0.00 43 1016.4
20260502200512 45 281 3.0 10.0 0.00 0.00 0.00 39 1016.6
20260502200030 46 247 3.0 7.0 0.00 0.00 0.00 40 1016.6
20260502195509 47 303 4.0 8.0 0.00 0.00 0.00 42 1016.6
20260502195011 46 323 3.0 8.0 0.00 0.00 0.00 44 1016.6
20260502194530 46 308 3.0 8.0 0.00 0.00 0.00 43 1016.7
20260502194011 46 319 2.0 7.0 0.00 0.00 0.00 42 1016.8
20260502193510 45 355 2.0 8.0 0.00 0.00 0.00 43 1016.8
20260502193032 45 360 3.0 8.0 0.00 0.00 0.00 43 1016.7
20260502192512 45 310 2.0 7.0 0.00 0.00 0.00 39 1016.7
20260502192013 45 276 2.0 8.0 0.00 0.00 0.00 42 1016.8
20260502191529 46 324 3.0 8.0 0.00 0.00 0.00 43 1016.9
20260502191013 45 255 3.0 8.0 0.00 0.00 0.00 40 1016.9
20260502190513 45 330 1.0 9.0 0.00 0.00 0.00 45 1016.9
20260502190029 45 293 3.0 11.0 0.00 0.00 0.00 40 1017.0
20260502185512 45 344 4.0 11.0 0.00 0.00 0.00 45 1017.0
20260502185010 45 261 4.0 9.0 0.00 0.00 0.00 44 1016.9
20260502184528 45 310 3.0 7.0 0.00 0.00 0.00 45 1017.0
20260502184011 46 1 1.0 9.0 0.00 0.00 0.00 49 1016.9
20260502183513 46 272 2.0 9.0 0.00 0.00 0.00 46 1016.9
20260502183028 46 285 4.0 9.0 0.00 0.00 0.00 48 1016.9
20260502182514 46 235 1.0 9.0 0.00 0.00 0.00 50 1016.9
20260502182012 46 307 4.0 10.0 0.00 0.00 0.00 53 1017.1
20260502181536 45 4 3.0 10.0 0.00 0.00 0.00 50 1017.1
20260502181011 44 266 3.0 10.0 0.00 0.00 0.00 51 1017.0
20260502180510 44 297 2.0 10.0 0.00 0.00 0.00 48 1017.1
20260502170514 46 300 3.0 10.0 0.00 0.00 0.00 51 1017.0
20260502164011 44 277 4.0 9.0 0.00 0.00 0.00 53 1017.1
20260502163513 44 322 2.0 7.0 0.00 0.00 0.00 53 1017.1
20260502163028 44 0 2.0 8.0 0.00 0.00 0.00 56 1017.2
20260502162515 43 291 2.0 8.0 0.00 0.00 0.00 56 1017.1
20260502162010 43 317 2.0 8.0 0.00 0.00 0.00 57 1017.2
20260502161529 43 312 1.0 6.0 0.00 0.00 0.00 56 1017.3
20260502161011 43 11 3.0 10.0 0.00 0.00 0.00 56 1017.1
20260502160514 44 289 3.0 10.0 0.00 0.00 0.00 53 1017.2
20260502152011 42 247 1.0 7.0 0.00 0.00 0.00 59 1017.1
20260502151529 42 273 1.0 7.0 0.00 0.00 0.00 58 1017.2
20260502151011 43 335 3.0 7.0 0.00 0.00 0.00 56 1017.0
20260502150510 43 293 2.0 8.0 0.00 0.00 0.00 57 1017.1
20260502130512 39 283 3.0 7.0 0.00 0.00 0.00 70 1017.3
20260502123512 37 268 2.0 7.0 0.00 0.00 0.00 72 1017.3
20260502123028 37 289 2.0 6.0 0.00 0.00 0.00 74 1017.3
20260502122513 37 270 1.0 7.0 0.00 0.00 0.00 74 1017.3
20260502122019 37 278 2.0 7.0 0.00 0.00 0.00 74 1017.3
20260502121530 37 281 1.0 8.0 0.00 0.00 0.00 73 1017.2
20260502121013 38 278 2.0 9.0 0.00 0.00 0.00 72 1017.2
20260502120511 38 308 3.0 9.0 0.00 0.00 0.00 72 1017.1
20260502115511 38 345 2.0 6.0 0.00 0.00 0.00 75 1017.2
20260502115012 37 0 0.0 6.0 0.00 0.00 0.00 75 1017.2
20260502114531 36 0 0.0 2.0 0.00 0.00 0.00 76 1017.1
20260502114011 35 0 0.0 1.0 0.00 0.00 0.00 77 1017.1
20260502113512 35 0 0.0 0.0 0.00 0.00 0.00 77 1017.1
20260502113028 34 0 0.0 0.0 0.00 0.00 0.00 79 1017.1
20260502112512 34 0 0.0 0.0 0.00 0.00 0.00 80 1017.1
20260502112016 33 0 0.0 0.0 0.00 0.00 0.00 83 1017.1
20260502111528 33 0 0.0 0.0 0.00 0.00 0.00 83 1017.1
20260502111012 33 0 0.0 0.0 0.00 0.00 0.00 83 1017.1
20260502110512 33 0 0.0 0.0 0.00 0.00 0.00 82 1017.1
20260502110031 33 0 0.0 0.0 0.00 0.00 0.00 81 1017.1
20260502105512 33 0 0.0 0.0 0.00 0.00 0.00 81 1017.1
20260502105012 33 0 0.0 0.0 0.00 0.00 0.00 81 1017.0
20260502104530 34 0 0.0 0.0 0.00 0.00 0.00 81 1016.9
20260502104011 34 0 0.0 0.0 0.00 0.00 0.00 81 1016.9
20260502103512 34 0 0.0 0.0 0.00 0.00 0.00 80 1016.9
20260502103030 34 0 0.0 0.0 0.00 0.00 0.00 79 1016.9
20260502102513 34 0 0.0 0.0 0.00 0.00 0.00 79 1016.8
20260502102011 34 0 0.0 0.0 0.00 0.00 0.00 79 1016.8
20260502101535 35 0 0.0 0.0 0.00 0.00 0.00 77 1016.8
20260502101011 35 0 0.0 0.0 0.00 0.00 0.00 78 1016.8
20260502100513 35 0 0.0 0.0 0.00 0.00 0.00 76 1016.7
20260502091530 35 0 0.0 0.0 0.00 0.00 0.00 76 1016.2
20260502091011 35 0 0.0 0.0 0.00 0.00 0.00 76 1016.3
20260502090513 35 0 0.0 0.0 0.00 0.00 0.00 76 1016.3
20260502071528 35 0 0.0 0.0 0.00 0.00 0.00 76 1016.2
20260502071013 35 0 0.0 0.0 0.00 0.00 0.00 76 1016.2
20260502070512 36 0 0.0 0.0 0.00 0.00 0.00 77 1016.3
20260502070032 36 0 0.0 0.0 0.00 0.00 0.00 78 1016.3
20260502065513 36 0 0.0 0.0 0.00 0.00 0.00 78 1016.3
20260502065013 36 0 0.0 0.0 0.00 0.00 0.00 77 1016.3
20260502064549 36 0 0.0 0.0 0.00 0.00 0.00 76 1016.3
20260502064013 36 0 0.0 0.0 0.00 0.00 0.00 76 1016.3
20260502063513 36 0 0.0 0.0 0.00 0.00 0.00 76 1016.3
20260502063036 36 0 0.0 0.0 0.00 0.00 0.00 76 1016.3
20260502062515 36 0 0.0 0.0 0.00 0.00 0.00 76 1016.3
20260502062011 36 0 0.0 0.0 0.00 0.00 0.00 76 1016.4
20260502061528 36 0 0.0 0.0 0.00 0.00 0.00 76 1016.4
20260502061011 36 0 0.0 0.0 0.00 0.00 0.00 76 1016.5
20260502060511 36 0 0.0 0.0 0.00 0.00 0.00 76 1016.5
20260502060030 36 0 0.0 0.0 0.00 0.00 0.00 77 1016.5
20260502055513 36 0 0.0 0.0 0.00 0.00 0.00 78 1016.6
20260502055011 36 0 0.0 1.0 0.00 0.00 0.00 78 1016.6
20260502054531 36 0 0.0 1.0 0.00 0.00 0.00 78 1016.5
20260502054011 36 0 0.0 0.0 0.00 0.00 0.00 79 1016.6
20260502053511 36 0 0.0 0.0 0.00 0.00 0.00 79 1016.6
20260502053032 36 0 0.0 0.0 0.00 0.00 0.00 79 1016.6
20260502052511 36 0 0.0 0.0 0.00 0.00 0.00 80 1016.6
20260502052013 36 0 0.0 0.0 0.00 0.00 0.00 80 1016.6
20260502051537 36 0 0.0 0.0 0.00 0.00 0.00 81 1016.7
20260502051013 36 0 0.0 0.0 0.00 0.00 0.00 80 1016.6
20260502050513 36 0 0.0 0.0 0.00 0.00 0.00 80 1016.5
20260502050029 36 0 0.0 0.0 0.00 0.00 0.00 80 1016.6
20260502045513 36 0 0.0 0.0 0.00 0.00 0.00 80 1016.5
20260502045012 36 0 0.0 0.0 0.00 0.00 0.00 80 1016.5
20260502044535 36 0 0.0 0.0 0.00 0.00 0.00 79 1016.4
20260502044016 36 0 0.0 0.0 0.00 0.00 0.00 79 1016.4
20260502043512 36 0 0.0 0.0 0.00 0.00 0.00 79 1016.6
20260502043031 36 0 0.0 0.0 0.00 0.00 0.00 80 1016.5
20260502042514 36 0 0.0 0.0 0.00 0.00 0.00 79 1016.5
20260502042014 36 0 0.0 0.0 0.00 0.00 0.00 80 1016.5
20260502041534 36 0 0.0 0.0 0.00 0.00 0.00 80 1016.5
20260502041012 36 0 0.0 0.0 0.00 0.00 0.00 80 1016.5
20260502040513 36 0 0.0 0.0 0.00 0.00 0.00 80 1016.5
20260502040040 36 0 0.0 0.0 0.00 0.00 0.00 79 1016.5
20260502035513 36 0 0.0 0.0 0.00 0.00 0.00 79 1016.4
20260502035013 36 0 0.0 0.0 0.00 0.00 0.00 79 1016.4
20260502034533 36 0 0.0 0.0 0.00 0.00 0.00 78 1016.3
20260502034011 36 0 0.0 0.0 0.00 0.00 0.00 78 1016.4
20260502033512 36 0 0.0 0.0 0.00 0.00 0.00 77 1016.4
20260502033030 36 0 0.0 0.0 0.00 0.00 0.00 76 1016.4
20260502032512 36 0 0.0 0.0 0.00 0.00 0.00 73 1016.4
20260502032011 35 0 0.0 0.0 0.00 0.00 0.00 73 1016.4
20260502031528 35 0 0.0 0.0 0.00 0.00 0.00 72 1016.5
20260502031012 35 0 0.0 0.0 0.00 0.00 0.00 72 1016.5
20260502030514 36 0 0.0 0.0 0.00 0.00 0.00 71 1016.5
20260502030032 36 0 0.0 0.0 0.00 0.00 0.00 70 1016.5
20260502025513 36 0 0.0 0.0 0.00 0.00 0.00 69 1016.6
20260502025013 36 0 0.0 0.0 0.00 0.00 0.00 68 1016.6
20260502024532 35 0 0.0 0.0 0.00 0.00 0.00 69 1016.5
20260502024013 35 0 0.0 0.0 0.00 0.00 0.00 68 1016.6
20260502023513 35 0 0.0 0.0 0.00 0.00 0.00 68 1016.6
20260502023037 35 0 0.0 0.0 0.00 0.00 0.00 69 1016.5
20260502022513 36 0 0.0 0.0 0.00 0.00 0.00 66 1016.5
20260502022014 36 0 0.0 0.0 0.00 0.00 0.00 66 1016.4
20260502021528 36 0 0.0 0.0 0.00 0.00 0.00 66 1016.2
20260502021012 36 0 0.0 0.0 0.00 0.00 0.00 65 1016.0
20260502020513 36 0 0.0 0.0 0.00 0.00 0.00 64 1016.0
20260502020028 36 0 0.0 0.0 0.00 0.00 0.00 64 1016.1
20260502015511 36 0 0.0 0.0 0.00 0.00 0.00 63 1016.0
20260502015012 36 0 0.0 0.0 0.00 0.00 0.00 63 1016.1
20260502014543 36 0 0.0 2.0 0.00 0.00 0.00 61 1016.0
20260502014013 37 0 0.0 2.0 0.00 0.00 0.00 61 1015.9
20260502013512 37 282 0.0 2.0 0.00 0.00 0.00 60 1015.8
20260502013031 37 0 0.0 4.0 0.00 0.00 0.00 60 1015.7
20260502012513 37 335 1.0 4.0 0.00 0.00 0.00 59 1015.7
20260502012011 37 334 1.0 5.0 0.00 0.00 0.00 58 1015.6
20260502011530 38 337 1.0 5.0 0.00 0.00 0.00 59 1015.6
20260502011011 38 318 1.0 5.0 0.00 0.00 0.00 58 1015.5
20260502010513 38 335 1.0 4.0 0.00 0.00 0.00 58 1015.4
20260502010033 38 330 1.0 4.0 0.00 0.00 0.00 58 1015.5
20260502005513 38 319 1.0 4.0 0.00 0.00 0.00 58 1015.4
20260502005011 38 319 1.0 6.0 0.00 0.00 0.00 57 1015.3
20260502004532 38 332 0.0 6.0 0.00 0.00 0.00 56 1015.3
20260502004011 38 326 2.0 6.0 0.00 0.00 0.00 56 1015.3
20260502003515 38 347 2.0 5.0 0.00 0.00 0.00 55 1015.3
20260502003031 39 341 2.0 5.0 0.00 0.00 0.00 55 1015.2
20260502002511 39 344 2.0 5.0 0.00 0.00 0.00 54 1015.2
20260502002012 39 333 1.0 4.0 0.00 0.00 0.00 54 1015.3
20260502001549 39 339 1.0 6.0 0.00 0.00 0.00 53 1015.2
20260502001013 39 339 1.0 6.0 0.00 0.00 0.00 50 1015.1
20260502000511 40 323 1.0 5.0 0.00 0.00 0.00 50 1015.0
20260502000035 40 6 2.0 5.0 0.00 0.00 0.00 48 1015.0
20260501235514 40 353 2.0 7.0 0.00 0.00 0.00 48 1015.0
20260501235010 40 341 3.0 7.0 0.00 0.00 0.00 49 1014.9
20260501234530 41 319 4.0 7.0 0.00 0.00 0.00 48 1015.0
20260501234012 41 314 2.0 8.0 0.00 0.00 0.00 48 1014.9
20260501233513 41 345 3.0 8.0 0.00 0.00 0.00 47 1014.8
20260501233030 41 2 3.0 8.0 0.00 0.00 0.00 47 1014.8
20260501232516 41 344 4.0 8.0 0.00 0.00 0.00 50 1014.9
20260501232011 41 337 3.0 8.0 0.00 0.00 0.00 51 1014.9
20260501231528 41 343 3.0 8.0 0.00 0.00 0.00 48 1014.8
20260501231011 42 328 3.0 7.0 0.00 0.00 0.00 48 1014.7
20260501230510 42 308 3.0 10.0 0.00 0.00 0.00 48 1014.7
20260501230032 42 328 3.0 11.0 0.00 0.00 0.00 52 1014.7